SIK63A LIRI-LICC

Flight info

Callsign SIK63A
Flight time 0h 50m
Altitude 37000
Route VARAL DCT PELEN Q789 UXUTA
Aircraft B737/M-SDE2E3FGHIRWXY/LB1

Departure

Time 2026-04-16 08:03
Airport Salerno Costa d'Amalfi Airport (LIRI)

Arrival

Time 2026-04-16 08:53
Airport Catania-Fontanarossa Airport (LICC)
Time Latitude Longitude Altitude Speed Heading
2026-04-16 07:49 40.62142 14.91981 87 ft 0 kts 346°
2026-04-16 08:00 40.62159 14.91968 84 ft 5 kts 314°
2026-04-16 08:00 40.62180 14.91930 85 ft 5 kts 305°
2026-04-16 08:01 40.62212 14.91887 88 ft 8 kts 321°
2026-04-16 08:01 40.62261 14.91837 81 ft 9 kts 324°
2026-04-16 08:01 40.62304 14.91773 83 ft 10 kts 261°
2026-04-16 08:01 40.62274 14.91722 83 ft 0 kts 232°
2026-04-16 08:02 40.61699 14.90757 84 ft 143 kts 231°
2026-04-16 08:02 40.61030 14.89662 621 ft 160 kts 231°
2026-04-16 08:03 40.60329 14.88449 1317 ft 171 kts 233°
2026-04-16 08:03 40.59577 14.87182 2114 ft 180 kts 230°
2026-04-16 08:03 40.58745 14.85871 2796 ft 200 kts 229°
2026-04-16 08:03 40.57768 14.84353 3110 ft 234 kts 229°
2026-04-16 08:04 40.56668 14.82638 3571 ft 255 kts 229°
2026-04-16 08:04 40.55472 14.80765 4086 ft 276 kts 229°
2026-04-16 08:04 40.54221 14.78801 5064 ft 282 kts 228°
2026-04-16 08:04 40.52958 14.76812 6235 ft 283 kts 229°
2026-04-16 08:05 40.51692 14.74818 7285 ft 287 kts 229°
2026-04-16 08:05 40.50399 14.72782 8263 ft 293 kts 229°
2026-04-16 08:05 40.49078 14.70702 9262 ft 298 kts 230°
2026-04-16 08:05 40.47734 14.68587 9840 ft 304 kts 230°
2026-04-16 08:06 40.46389 14.66469 10050 ft 306 kts 230°
2026-04-16 08:06 40.45006 14.64296 10139 ft 317 kts 230°
2026-04-16 08:06 40.43523 14.61969 10387 ft 346 kts 230°
2026-04-16 08:06 40.41947 14.59501 11031 ft 359 kts 230°
2026-04-16 08:07 40.40321 14.56973 11889 ft 365 kts 229°
2026-04-16 08:07 40.38669 14.54413 12792 ft 369 kts 230°
2026-04-16 08:07 40.36996 14.51822 13727 ft 374 kts 230°
2026-04-16 08:07 40.35208 14.49321 14559 ft 380 kts 217°
2026-04-16 08:08 40.32880 14.47718 15494 ft 378 kts 194°
2026-04-16 08:08 40.30294 14.47302 16513 ft 374 kts 175°
2026-04-16 08:08 40.27764 14.47989 17456 ft 372 kts 156°
2026-04-16 08:08 40.25394 14.49376 18359 ft 375 kts 152°
2026-04-16 08:09 40.23030 14.50876 19086 ft 380 kts 152°
2026-04-16 08:09 40.20675 14.52384 19822 ft 384 kts 152°
2026-04-16 08:09 40.18247 14.53917 20490 ft 391 kts 152°
2026-04-16 08:09 40.15781 14.55447 21256 ft 394 kts 152°
2026-04-16 08:10 40.13293 14.56974 22066 ft 396 kts 153°
2026-04-16 08:10 40.10785 14.58506 22842 ft 398 kts 153°
2026-04-16 08:10 40.08257 14.60036 23577 ft 402 kts 153°
2026-04-16 08:10 40.05700 14.61555 24181 ft 406 kts 153°
2026-04-16 08:11 40.03115 14.63069 24739 ft 410 kts 156°
2026-04-16 08:11 40.00322 14.63961 25238 ft 421 kts 174°
2026-04-16 08:11 39.97372 14.63832 25832 ft 426 kts 182°
2026-04-16 08:11 39.94410 14.63488 26416 ft 428 kts 183°
2026-04-16 08:12 39.91476 14.63106 26985 ft 431 kts 184°
2026-04-16 08:12 39.88482 14.62715 27037 ft 433 kts 184°
2026-04-16 08:12 39.85495 14.62335 27060 ft 429 kts 183°
2026-04-16 08:12 39.82532 14.61972 27060 ft 428 kts 183°
2026-04-16 08:13 39.79561 14.61621 27073 ft 429 kts 183°
2026-04-16 08:13 39.76585 14.61278 27070 ft 430 kts 183°
2026-04-16 08:13 39.73606 14.60939 27065 ft 430 kts 183°
2026-04-16 08:13 39.70621 14.60602 27063 ft 430 kts 183°
2026-04-16 08:14 39.67637 14.60265 27064 ft 430 kts 183°
2026-04-16 08:14 39.64654 14.59929 27074 ft 430 kts 183°
2026-04-16 08:14 39.61676 14.59594 27064 ft 430 kts 183°
2026-04-16 08:14 39.58697 14.59258 27050 ft 430 kts 183°
2026-04-16 08:15 39.55724 14.58924 27058 ft 429 kts 183°
2026-04-16 08:15 39.52746 14.58589 27070 ft 427 kts 183°
2026-04-16 08:15 39.49790 14.58256 27067 ft 426 kts 183°
2026-04-16 08:15 39.46879 14.57929 27057 ft 425 kts 183°
2026-04-16 08:16 39.43939 14.57599 27063 ft 424 kts 183°
2026-04-16 08:16 39.41005 14.57270 27058 ft 423 kts 183°
2026-04-16 08:16 39.38073 14.56941 27067 ft 423 kts 183°
2026-04-16 08:16 39.35138 14.56613 27060 ft 423 kts 183°
2026-04-16 08:17 39.32202 14.56285 27064 ft 423 kts 184°
2026-04-16 08:17 39.29267 14.55957 27066 ft 422 kts 184°
2026-04-16 08:17 39.26339 14.55630 27053 ft 422 kts 184°
2026-04-16 08:17 39.23422 14.55304 27055 ft 421 kts 184°
2026-04-16 08:18 39.20506 14.54979 27056 ft 420 kts 184°
2026-04-16 08:19 39.00159 14.52718 27053 ft 417 kts 184°
2026-04-16 08:20 38.97312 14.52402 27053 ft 416 kts 184°
2026-04-16 08:20 38.94429 14.52083 27056 ft 416 kts 183°
2026-04-16 08:20 38.91547 14.51765 27056 ft 416 kts 183°
2026-04-16 08:20 38.88668 14.51447 27065 ft 416 kts 183°
2026-04-16 08:21 38.85786 14.51128 27059 ft 416 kts 183°
2026-04-16 08:21 38.82904 14.50811 27053 ft 415 kts 183°
2026-04-16 08:21 38.80022 14.50493 27051 ft 415 kts 183°
2026-04-16 08:21 38.77144 14.50176 27054 ft 415 kts 183°
2026-04-16 08:22 38.74269 14.49860 27052 ft 415 kts 183°
2026-04-16 08:22 38.71390 14.49543 27052 ft 415 kts 183°
2026-04-16 08:22 38.68509 14.49227 27052 ft 415 kts 183°
2026-04-16 08:22 38.65635 14.48911 27061 ft 415 kts 183°
2026-04-16 08:23 38.62757 14.48595 27052 ft 415 kts 183°
2026-04-16 08:23 38.59879 14.48280 27047 ft 414 kts 183°
2026-04-16 08:23 38.57007 14.47965 27048 ft 414 kts 183°
2026-04-16 08:23 38.54134 14.47651 27049 ft 414 kts 183°
2026-04-16 08:24 38.51262 14.47337 27050 ft 414 kts 183°
2026-04-16 08:24 38.48397 14.47024 27046 ft 413 kts 183°
2026-04-16 08:24 38.45566 14.46715 27047 ft 413 kts 183°
2026-04-16 08:24 38.42699 14.46402 27054 ft 413 kts 183°
2026-04-16 08:25 38.39834 14.46090 27043 ft 413 kts 183°
2026-04-16 08:25 38.36964 14.45811 27038 ft 413 kts 179°
2026-04-16 08:25 38.34112 14.46042 27036 ft 410 kts 169°
2026-04-16 08:25 38.31334 14.46820 27044 ft 409 kts 162°
2026-04-16 08:26 38.28686 14.48128 27041 ft 408 kts 154°
2026-04-16 08:26 38.26121 14.49654 27036 ft 406 kts 154°
2026-04-16 08:26 38.23579 14.51195 26558 ft 403 kts 153°
2026-04-16 08:26 38.21064 14.52718 25994 ft 399 kts 153°
2026-04-16 08:27 38.18574 14.54214 25401 ft 393 kts 153°
2026-04-16 08:27 38.16108 14.55684 24801 ft 389 kts 153°
2026-04-16 08:27 38.13662 14.57133 24203 ft 386 kts 153°
2026-04-16 08:27 38.11231 14.58569 23575 ft 384 kts 153°
2026-04-16 08:28 38.08814 14.59994 22878 ft 382 kts 153°
2026-04-16 08:28 38.06412 14.61409 22240 ft 379 kts 153°
2026-04-16 08:28 38.04059 14.62793 21628 ft 376 kts 153°
2026-04-16 08:28 38.01698 14.64182 21029 ft 372 kts 152°
2026-04-16 08:29 37.99362 14.65556 20434 ft 369 kts 152°
2026-04-16 08:29 37.97038 14.66921 19859 ft 367 kts 152°
2026-04-16 08:29 37.94729 14.68276 19312 ft 365 kts 153°
2026-04-16 08:29 37.92330 14.69304 18820 ft 366 kts 168°
2026-04-16 08:30 37.89800 14.69690 18451 ft 368 kts 174°
2026-04-16 08:30 37.87224 14.69279 18014 ft 380 kts 198°
2026-04-16 08:30 37.84917 14.67651 17604 ft 384 kts 219°
2026-04-16 08:30 37.83176 14.65104 17200 ft 384 kts 240°
2026-04-16 08:31 37.81992 14.62092 16809 ft 382 kts 245°
2026-04-16 08:31 37.80898 14.59042 16407 ft 380 kts 245°
2026-04-16 08:31 37.79792 14.56002 16004 ft 378 kts 245°
2026-04-16 08:31 37.78676 14.53019 15610 ft 372 kts 244°
2026-04-16 08:32 37.77572 14.50141 15243 ft 366 kts 241°
2026-04-16 08:32 37.76009 14.47658 14857 ft 360 kts 218°
2026-04-16 08:32 37.73873 14.46094 14485 ft 354 kts 198°
2026-04-16 08:32 37.71503 14.45448 14068 ft 343 kts 179°
2026-04-16 08:33 37.69156 14.45570 13723 ft 333 kts 172°
2026-04-16 08:33 37.66891 14.45939 13317 ft 323 kts 161°
2026-04-16 08:33 37.64960 14.47225 13004 ft 309 kts 137°
2026-04-16 08:33 37.63613 14.49223 12678 ft 299 kts 118°
2026-04-16 08:34 37.62823 14.51589 12360 ft 290 kts 103°
2026-04-16 08:34 37.62625 14.54081 12054 ft 283 kts 88°
2026-04-16 08:34 37.62770 14.56526 11763 ft 277 kts 84°
2026-04-16 08:34 37.62960 14.58923 11470 ft 272 kts 84°
2026-04-16 08:35 37.63140 14.61273 11188 ft 272 kts 85°
2026-04-16 08:35 37.63313 14.63639 10921 ft 267 kts 85°
2026-04-16 08:35 37.63475 14.65920 10671 ft 254 kts 85°
2026-04-16 08:35 37.63625 14.68099 10464 ft 246 kts 85°
2026-04-16 08:36 37.63707 14.70232 10252 ft 241 kts 97°
2026-04-16 08:36 37.63105 14.72172 10059 ft 241 kts 125°
2026-04-16 08:36 37.61860 14.73584 9857 ft 243 kts 147°
2026-04-16 08:36 37.60279 14.74265 9633 ft 244 kts 166°
2026-04-16 08:37 37.58605 14.74568 9400 ft 242 kts 169°
2026-04-16 08:37 37.56944 14.74796 9172 ft 239 kts 175°
2026-04-16 08:37 37.55336 14.74324 8968 ft 241 kts 207°
2026-04-16 08:37 37.54144 14.72872 8760 ft 242 kts 239°
2026-04-16 08:38 37.53630 14.70866 8577 ft 242 kts 261°
2026-04-16 08:38 37.53431 14.68750 8378 ft 245 kts 264°
2026-04-16 08:38 37.53265 14.66608 8152 ft 246 kts 264°
2026-04-16 08:38 37.53097 14.64457 7970 ft 246 kts 264°
2026-04-16 08:39 37.52927 14.62335 7833 ft 242 kts 264°
2026-04-16 08:39 37.52749 14.60238 7701 ft 238 kts 264°
2026-04-16 08:39 37.52569 14.58177 7577 ft 235 kts 264°
2026-04-16 08:39 37.52391 14.56154 7508 ft 236 kts 264°
2026-04-16 08:40 37.52207 14.54075 7421 ft 241 kts 264°
2026-04-16 08:40 37.52021 14.51965 7301 ft 243 kts 263°
2026-04-16 08:40 37.51832 14.49842 7178 ft 243 kts 264°
2026-04-16 08:40 37.51640 14.47733 7051 ft 242 kts 261°
2026-04-16 08:41 37.51004 14.45813 6898 ft 238 kts 226°
2026-04-16 08:41 37.49693 14.44671 6792 ft 227 kts 193°
2026-04-16 08:41 37.48161 14.44404 6702 ft 221 kts 172°
2026-04-16 08:41 37.46625 14.44605 6600 ft 223 kts 169°
2026-04-16 08:42 37.45078 14.44837 6468 ft 225 kts 169°
2026-04-16 08:42 37.43530 14.45120 6355 ft 222 kts 158°
2026-04-16 08:42 37.42309 14.46144 6217 ft 207 kts 123°
2026-04-16 08:42 37.41727 14.47740 6129 ft 200 kts 98°
2026-04-16 08:43 37.41709 14.49482 6034 ft 200 kts 83°
2026-04-16 08:43 37.41866 14.51229 5925 ft 203 kts 83°
2026-04-16 08:43 37.42028 14.53005 5822 ft 205 kts 83°
2026-04-16 08:43 37.42188 14.54770 5711 ft 207 kts 83°
2026-04-16 08:44 37.42351 14.56563 5591 ft 205 kts 83°
2026-04-16 08:44 37.42510 14.58328 5475 ft 201 kts 83°
2026-04-16 08:44 37.42665 14.60070 5396 ft 201 kts 83°
2026-04-16 08:44 37.42821 14.61823 5287 ft 202 kts 83°
2026-04-16 08:45 37.42977 14.63581 5180 ft 202 kts 83°
2026-04-16 08:45 37.43131 14.65333 5069 ft 201 kts 83°
2026-04-16 08:45 37.43293 14.67099 4903 ft 204 kts 82°
2026-04-16 08:45 37.43508 14.68863 4741 ft 203 kts 81°
2026-04-16 08:46 37.43694 14.70604 4549 ft 198 kts 82°
2026-04-16 08:46 37.43849 14.72307 4380 ft 193 kts 83°
2026-04-16 08:46 37.43988 14.73952 4236 ft 185 kts 83°
2026-04-16 08:46 37.44115 14.75503 4064 ft 177 kts 83°
2026-04-16 08:47 37.44242 14.77063 3910 ft 177 kts 83°
2026-04-16 08:47 37.44365 14.78583 3768 ft 177 kts 83°
2026-04-16 08:47 37.44491 14.80128 3609 ft 176 kts 83°
2026-04-16 08:47 37.44614 14.81640 3450 ft 170 kts 83°
2026-04-16 08:48 37.44730 14.83076 3408 ft 159 kts 83°
2026-04-16 08:48 37.44847 14.84499 3246 ft 166 kts 83°
2026-04-16 08:48 37.44963 14.85916 3037 ft 160 kts 84°
2026-04-16 08:48 37.45075 14.87291 2821 ft 156 kts 84°
2026-04-16 08:49 37.45185 14.88632 2608 ft 152 kts 83°
2026-04-16 08:49 37.45292 14.89936 2420 ft 153 kts 84°
2026-04-16 08:49 37.45400 14.91259 2244 ft 146 kts 83°
2026-04-16 08:49 37.45501 14.92479 2022 ft 134 kts 84°
2026-04-16 08:50 37.45592 14.93581 1842 ft 121 kts 83°
2026-04-16 08:50 37.45678 14.94619 1692 ft 119 kts 83°
2026-04-16 08:50 37.45765 14.95666 1525 ft 123 kts 84°
2026-04-16 08:50 37.45852 14.96728 1370 ft 122 kts 83°
2026-04-16 08:51 37.45940 14.97788 1211 ft 124 kts 83°
2026-04-16 08:51 37.46031 14.98883 1053 ft 127 kts 84°
2026-04-16 08:51 37.46118 14.99960 859 ft 123 kts 85°
2026-04-16 08:51 37.46204 15.01027 658 ft 122 kts 84°
2026-04-16 08:52 37.46306 15.02089 504 ft 123 kts 83°
2026-04-16 08:52 37.46397 15.03199 424 ft 129 kts 85°
2026-04-16 08:52 37.46482 15.04346 229 ft 133 kts 83°
2026-04-16 08:52 37.46585 15.05505 55 ft 131 kts 84°
2026-04-16 08:53 37.46671 15.06551 23 ft 102 kts 84°
2026-04-16 08:53 37.46727 15.07213 23 ft 50 kts 84°
2026-04-16 08:53 37.46764 15.07552 26 ft 35 kts 73°
2026-04-16 08:53 37.46851 15.07759 25 ft 21 kts 50°
2026-04-16 08:54 37.46924 15.07787 22 ft 11 kts 325°
2026-04-16 08:54 37.46932 15.07695 22 ft 11 kts 261°
2026-04-16 08:54 37.46927 15.07632 22 ft 11 kts 263°
2026-04-16 08:54 37.46916 15.07503 22 ft 16 kts 264°
2026-04-16 08:55 37.46908 15.07397 29 ft 19 kts 264°
2026-04-16 08:55 37.46889 15.07174 19 ft 19 kts 263°
2026-04-16 08:55 37.46876 15.07011 19 ft 18 kts 263°
2026-04-16 08:55 37.46863 15.06868 17 ft 14 kts 264°
2026-04-16 08:56 37.46857 15.06784 21 ft 14 kts 264°
2026-04-16 08:56 37.46849 15.06693 19 ft 6 kts 263°
2026-04-16 08:56 37.46851 15.06640 17 ft 6 kts 296°
2026-04-16 08:56 37.46866 15.06610 19 ft 3 kts 315°
2026-04-16 08:57 37.46885 15.06609 20 ft 4 kts 15°
2026-04-16 08:57 37.46909 15.06618 16 ft 2 kts 18°
2026-04-16 08:57 37.46919 15.06622 17 ft 0 kts 18°